QPF
0.01 0.01 0.01 0.01 0.01 0.01 0.00 0.00 0.00 0.01 0.00 0.01 0.01 0.00 0.00 0.00 0.00 0.00 0.00 0.00 0.00 0.00 0.00 0.00 0.00 0.00 0.00 0.00 0.00 0.00 0.00 0.00 0.00 0.00 0.00 0.00 0.01 0.01 0.01 0.01 0.01 0.01 0.01 0.01
0.01 0.00 0.01 0.00 0.00 0.00 0.00 0.00 0.00 0.00 0.00 0.00 0.00 0.00 0.00 0.00 0.00 0.00 0.00 0.00 0.00 0.00 0.00 0.00 0.00 0.00 0.00 0.00 0.00 0.00 0.00 0.00 0.00 0.00 0.00 0.00 0.00 0.00 0.01 0.01 0.01 0.01 0.01 0.01
0.01 0.00 0.00 0.00 0.00 0.00 0.00 0.00 0.00 0.00 0.00 0.00 0.00 0.00 0.00 0.00 0.00 0.00 0.00 0.00 0.00 0.00 0.00 0.00 0.00 0.00 0.00 0.00 0.00 0.00 0.00 0.00 0.00 0.00 0.00 0.00 0.00 0.01 0.01 0.01 0.01 0.01 0.01 0.02
0.01 0.00 0.00 0.00 0.00 0.00 0.00 0.00 0.00 0.00 0.00 0.00 0.00 0.00 0.00 0.00 0.00 0.00 0.00 0.00 0.00 0.00 0.00 0.00 0.00 0.00 0.00 0.00 0.00 0.00 0.00 0.00 0.00 0.00 0.00 0.00 0.01 0.02 0.01 0.02 0.03 0.03 0.02 0.03
0.00 0.00 0.00 0.00 0.00 0.00 0.00 0.00 0.00 0.00 0.00 0.00 0.00 0.00 0.00 0.00 0.00 0.00 0.00 0.00 0.00 0.00 0.00 0.00 0.00 0.00 0.00 0.00 0.00 0.00 0.00 0.00 0.01 0.01 0.01 0.00 0.01 0.01 0.02 0.02 0.02 0.03 0.03 0.03
0.00 0.00 0.00 0.00 0.00 0.00 0.00 0.00 0.00 0.00 0.00 0.00 0.00 0.00 0.00 0.00 0.00 0.00 0.00 0.00 0.00 0.00 0.00 0.00 0.00 0.00 0.00 0.00 0.00 0.00 0.00 0.01 0.01 0.00 0.00 0.01 0.01 0.02 0.02 0.03 0.03 0.02 0.02 0.02
0.00 0.00 0.00 0.00 0.00 0.00 0.00 0.00 0.00 0.00 0.00 0.00 0.00 0.00 0.00 0.00 0.00 0.00 0.00 0.00 0.00 0.00 0.00 0.00 0.00 0.00 0.00 0.00 0.00 0.00 0.01 0.01 0.01 0.00 0.01 0.01 0.02 0.02 0.03 0.02 0.02 0.02 0.02 0.03
0.00 0.00 0.00 0.00 0.00 0.00 0.00 0.00 0.00 0.00 0.00 0.00 0.00 0.00 0.00 0.00 0.00 0.00 0.00 0.00 0.00 0.00 0.00 0.00 0.00 0.00 0.00 0.00 0.00 0.00 0.01 0.01 0.01 0.01 0.01 0.01 0.02 0.02 0.02 0.03 0.04 0.05 0.05 0.03
0.00 0.00 0.00 0.00 0.00 0.00 0.00 0.00 0.00 0.00 0.00 0.00 0.00 0.00 0.00 0.00 0.00 0.00 0.00 0.00 0.00 0.00 0.00 0.00 0.00 0.00 0.00 0.00 0.00 0.00 0.01 0.01 0.00 0.00 0.00 0.01 0.01 0.01 0.02 0.02 0.03 0.04 0.05 0.04
0.00 0.00 0.00 0.00 0.00 0.00 0.00 0.00 0.00 0.00 0.00 0.00 0.00 0.00 0.00 0.00 0.00 0.00 0.00 0.00 0.00 0.00 0.00 0.00 0.00 0.00 0.00 0.00 0.00 0.00 0.00 0.00 0.00 0.00 0.00 0.01 0.00 0.01 0.02 0.03 0.03 0.03 0.03 0.04
0.00 0.00 0.00 0.00 0.00 0.00 0.00 0.00 0.00 0.00 0.00 0.00 0.00 0.00 0.00 0.00 0.00 0.00 0.00 0.00 0.00 0.00 0.00 0.00 0.00 0.00 0.00 0.00 0.00 0.00 0.00 0.00 0.00 0.00 0.00 0.00 0.00 0.00 0.01 0.02 0.02 0.02 0.02 0.03
0.00 0.00 0.00 0.00 0.00 0.00 0.00 0.00 0.00 0.00 0.00 0.00 0.00 0.00 0.00 0.00 0.00 0.00 0.00 0.00 0.00 0.00 0.00 0.00 0.00 0.00 0.00 0.00 0.00 0.00 0.00 0.00 0.00 0.00 0.00 0.01 0.01 0.01 0.01 0.01 0.02 0.02 0.02 0.02
0.00 0.00 0.00 0.00 0.00 0.00 0.00 0.00 0.00 0.00 0.00 0.00 0.00 0.00 0.00 0.00 0.00 0.00 0.00 0.00 0.00 0.00 0.00 0.00 0.00 0.00 0.00 0.00 0.00 0.00 0.00 0.00 0.00 0.00 0.00 0.00 0.00 0.01 0.02 0.02 0.03 0.02 0.02 0.02
0.00 0.00 0.00 0.00 0.00 0.00 0.00 0.00 0.00 0.00 0.00 0.00 0.00 0.00 0.00 0.00 0.00 0.00 0.00 0.00 0.00 0.00 0.00 0.00 0.00 0.00 0.00 0.00 0.00 0.00 0.00 0.00 0.00 0.00 0.00 0.00 0.00 0.01 0.01 0.02 0.02 0.03 0.02 0.02
0.00 0.00 0.00 0.00 0.00 0.00 0.00 0.00 0.00 0.00 0.00 0.00 0.00 0.00 0.00 0.00 0.00 0.00 0.00 0.00 0.00 0.00 0.00 0.00 0.00 0.00 0.00 0.00 0.00 0.00 0.00 0.00 0.00 0.00 0.00 0.00 0.00 0.00 0.01 0.01 0.01 0.03 0.03 0.02
0.00 0.00 0.00 0.00 0.00 0.00 0.00 0.00 0.00 0.00 0.00 0.00 0.00 0.00 0.00 0.00 0.00 0.00 0.00 0.00 0.00 0.00 0.00 0.00 0.00 0.00 0.00 0.00 0.00 0.00 0.00 0.00 0.00 0.00 0.00 0.00 0.00 0.00 0.00 0.00 0.01 0.02 0.04 0.04
0.00 0.00 0.00 0.00 0.00 0.00 0.00 0.00 0.00 0.00 0.00 0.00 0.00 0.00 0.00 0.00 0.00 0.00 0.00 0.00 0.00 0.00 0.00 0.00 0.00 0.00 0.00 0.00 0.00 0.00 0.00 0.00 0.00 0.00 0.00 0.00 0.00 0.00 0.00 0.00 0.01 0.01 0.02 0.02
0.00 0.00 0.00 0.00 0.00 0.00 0.00 0.00 0.00 0.00 0.00 0.00 0.00 0.00 0.00 0.00 0.00 0.00 0.00 0.00 0.00 0.00 0.00 0.00 0.00 0.00 0.00 0.00 0.00 0.00 0.00 0.00 0.00 0.00 0.00 0.00 0.00 0.00 0.00 0.00 0.01 0.01 0.01 0.01
0.00 0.00 0.00 0.00 0.00 0.00 0.00 0.00 0.00 0.00 0.00 0.00 0.00 0.00 0.00 0.00 0.00 0.00 0.00 0.00 0.00 0.00 0.00 0.00 0.00 0.00 0.00 0.00 0.00 0.00 0.00 0.00 0.00 0.00 0.00 0.00 0.00 0.00 0.00 0.00 0.00 0.00 0.00 0.01
0.00 0.00 0.00 0.00 0.00 0.00 0.00 0.00 0.00 0.00 0.00 0.00 0.00 0.00 0.00 0.00 0.00 0.00 0.00 0.00 0.00 0.00 0.00 0.00 0.00 0.00 0.00 0.00 0.00 0.00 0.00 0.00 0.00 0.00 0.00 0.00 0.00 0.00 0.00 0.00 0.00 0.00 0.00 0.00
0.00 0.00 0.00 0.00 0.00 0.00 0.00 0.00 0.00 0.00 0.00 0.00 0.00 0.00 0.00 0.00 0.00 0.00 0.00 0.00 0.00 0.00 0.00 0.00 0.00 0.00 0.00 0.00 0.00 0.00 0.00 0.00 0.00 0.00 0.00 0.00 0.00 0.00 0.00 0.00 0.00 0.00 0.00 0.00
0.00 0.00 0.00 0.00 0.00 0.00 0.00 0.00 0.00 0.00 0.00 0.00 0.00 0.00 0.00 0.00 0.00 0.00 0.00 0.00 0.00 0.00 0.00 0.00 0.00 0.00 0.00 0.00 0.00 0.00 0.00 0.00 0.00 0.00 0.00 0.00 0.00 0.00 0.00 0.00 0.00 0.00 0.00 0.00
0.00 0.00 0.00 0.00 0.00 0.00 0.00 0.00 0.00 0.00 0.00 0.00 0.00 0.00 0.00 0.00 0.00 0.00 0.00 0.00 0.00 0.00 0.00 0.00 0.00 0.00 0.00 0.00 0.00 0.00 0.00 0.00 0.00 0.00 0.00 0.00 0.00 0.00 0.00 0.00 0.00 0.00 0.00 0.00
0.00 0.00 0.00 0.00 0.00 0.00 0.00 0.00 0.00 0.00 0.00 0.00 0.00 0.00 0.00 0.00 0.00 0.00 0.00 0.00 0.00 0.00 0.00 0.00 0.00 0.00 0.00 0.00 0.00 0.00 0.00 0.00 0.00 0.00 0.00 0.00 0.00 0.00 0.00 0.00 0.00 0.00 0.00 0.00
0.00 0.00 0.00 0.00 0.00 0.00 0.00 0.00 0.00 0.00 0.00 0.00 0.00 0.00 0.00 0.00 0.00 0.00 0.00 0.00 0.00 0.00 0.00 0.00 0.00 0.00 0.00 0.00 0.00 0.00 0.00 0.00 0.00 0.00 0.00 0.00 0.00 0.00 0.00 0.00 0.00 0.00 0.00 0.00
0.00 0.00 0.00 0.00 0.00 0.00 0.00 0.00 0.00 0.00 0.00 0.00 0.00 0.00 0.00 0.00 0.00 0.00 0.00 0.00 0.00 0.00 0.00 0.00 0.00 0.00 0.00 0.00 0.00 0.00 0.00 0.00 0.00 0.00 0.00 0.00 0.00 0.00 0.00 0.00 0.00 0.00 0.00 0.00
MSLP
1015.03 1016.22 1017.31 1018.24 1019.01 1019.64 1020.14 1020.57 1020.95 1021.31 1021.63 1021.90 1022.11 1022.25 1022.29 1022.23 1022.08 1021.87 1021.60 1021.31 1021.00 1020.68 1020.36 1020.02 1019.68 1019.34 1018.99 1018.65 1018.32 1018.01 1017.71 1017.42 1017.13 1016.84 1016.54 1016.21 1015.85 1015.47 1015.08 1014.68 1014.31 1013.96 1013.65 1013.39
1015.93 1016.97 1017.88 1018.64 1019.26 1019.78 1020.24 1020.68 1021.10 1021.52 1021.90 1022.22 1022.45 1022.57 1022.57 1022.45 1022.25 1021.98 1021.69 1021.38 1021.07 1020.77 1020.46 1020.13 1019.78 1019.41 1019.02 1018.63 1018.26 1017.91 1017.61 1017.34 1017.09 1016.85 1016.58 1016.27 1015.91 1015.51 1015.06 1014.60 1014.15 1013.73 1013.39 1013.11
1016.67 1017.55 1018.28 1018.88 1019.39 1019.86 1020.31 1020.79 1021.29 1021.78 1022.22 1022.57 1022.80 1022.87 1022.79 1022.59 1022.30 1021.97 1021.63 1021.31 1021.02 1020.75 1020.47 1020.16 1019.82 1019.43 1019.02 1018.60 1018.20 1017.84 1017.54 1017.29 1017.07 1016.87 1016.64 1016.36 1016.00 1015.56 1015.06 1014.53 1014.00 1013.52 1013.11 1012.80
1017.23 1017.94 1018.52 1019.00 1019.45 1019.91 1020.41 1020.97 1021.57 1022.14 1022.64 1023.00 1023.19 1023.18 1022.99 1022.67 1022.26 1021.84 1021.45 1021.11 1020.83 1020.59 1020.36 1020.10 1019.79 1019.42 1019.00 1018.57 1018.15 1017.78 1017.48 1017.24 1017.06 1016.89 1016.69 1016.43 1016.07 1015.61 1015.06 1014.46 1013.86 1013.31 1012.83 1012.47
1017.64 1018.19 1018.65 1019.06 1019.49 1019.99 1020.59 1021.27 1021.98 1022.65 1023.19 1023.54 1023.66 1023.53 1023.19 1022.71 1022.16 1021.63 1021.16 1020.79 1020.52 1020.33 1020.15 1019.95 1019.69 1019.35 1018.96 1018.53 1018.10 1017.73 1017.43 1017.20 1017.04 1016.89 1016.71 1016.46 1016.10 1015.62 1015.04 1014.39 1013.73 1013.11 1012.57 1012.14
1017.97 1018.38 1018.74 1019.12 1019.58 1020.17 1020.89 1021.71 1022.54 1023.29 1023.86 1024.17 1024.19 1023.92 1023.41 1022.75 1022.03 1021.36 1020.81 1020.41 1020.15 1019.99 1019.87 1019.75 1019.55 1019.27 1018.90 1018.49 1018.07 1017.69 1017.38 1017.16 1016.99 1016.85 1016.68 1016.44 1016.08 1015.60 1015.00 1014.32 1013.62 1012.94 1012.34 1011.85
1018.27 1018.57 1018.87 1019.24 1019.76 1020.45 1021.30 1022.25 1023.19 1024.01 1024.59 1024.84 1024.75 1024.32 1023.63 1022.78 1021.90 1021.10 1020.45 1020.01 1019.75 1019.62 1019.57 1019.51 1019.39 1019.17 1018.85 1018.46 1018.05 1017.67 1017.35 1017.11 1016.93 1016.78 1016.61 1016.37 1016.02 1015.54 1014.94 1014.26 1013.54 1012.83 1012.18 1011.63
1018.59 1018.79 1019.05 1019.44 1020.02 1020.81 1021.78 1022.84 1023.86 1024.71 1025.27 1025.46 1025.25 1024.67 1023.81 1022.79 1021.76 1020.84 1020.12 1019.63 1019.37 1019.28 1019.29 1019.29 1019.24 1019.08 1018.81 1018.45 1018.06 1017.67 1017.34 1017.07 1016.87 1016.70 1016.52 1016.28 1015.94 1015.48 1014.90 1014.23 1013.52 1012.80 1012.13 1011.53
1018.90 1019.04 1019.28 1019.69 1020.33 1021.20 1022.24 1023.37 1024.43 1025.27 1025.79 1025.90 1025.58 1024.88 1023.89 1022.75 1021.61 1020.61 1019.83 1019.32 1019.06 1018.99 1019.04 1019.10 1019.10 1019.00 1018.78 1018.46 1018.09 1017.70 1017.36 1017.07 1016.85 1016.65 1016.46 1016.22 1015.89 1015.45 1014.91 1014.28 1013.59 1012.89 1012.21 1011.58
1019.16 1019.27 1019.51 1019.95 1020.62 1021.53 1022.61 1023.74 1024.78 1025.59 1026.05 1026.08 1025.67 1024.88 1023.81 1022.61 1021.42 1020.39 1019.59 1019.07 1018.81 1018.77 1018.84 1018.94 1018.98 1018.93 1018.75 1018.48 1018.13 1017.76 1017.42 1017.13 1016.88 1016.67 1016.46 1016.22 1015.91 1015.50 1014.99 1014.41 1013.76 1013.09 1012.42 1011.77
1019.31 1019.44 1019.70 1020.15 1020.84 1021.74 1022.79 1023.87 1024.85 1025.57 1025.95 1025.90 1025.44 1024.62 1023.54 1022.34 1021.17 1020.15 1019.38 1018.87 1018.63 1018.59 1018.67 1018.79 1018.86 1018.84 1018.71 1018.48 1018.18 1017.85 1017.53 1017.24 1017.00 1016.78 1016.56 1016.32 1016.01 1015.63 1015.17 1014.63 1014.03 1013.40 1012.75 1012.10
1019.35 1019.52 1019.81 1020.28 1020.95 1021.81 1022.77 1023.75 1024.60 1025.21 1025.49 1025.39 1024.90 1024.09 1023.05 1021.93 1020.84 1019.89 1019.18 1018.71 1018.48 1018.44 1018.52 1018.63 1018.72 1018.72 1018.63 1018.45 1018.20 1017.93 1017.66 1017.40 1017.18 1016.97 1016.75 1016.51 1016.21 1015.85 1015.42 1014.92 1014.37 1013.78 1013.16 1012.53
1019.29 1019.52 1019.86 1020.33 1020.97 1021.73 1022.58 1023.40 1024.09 1024.56 1024.73 1024.56 1024.07 1023.32 1022.38 1021.38 1020.42 1019.59 1018.96 1018.55 1018.34 1018.30 1018.36 1018.45 1018.52 1018.54 1018.48 1018.36 1018.19 1017.99 1017.79 1017.59 1017.40 1017.21 1017.00 1016.76 1016.47 1016.12 1015.71 1015.24 1014.73 1014.19 1013.62 1013.01
1019.22 1019.52 1019.90 1020.36 1020.93 1021.58 1022.25 1022.88 1023.38 1023.68 1023.73 1023.51 1023.04 1022.37 1021.56 1020.72 1019.92 1019.24 1018.72 1018.37 1018.19 1018.13 1018.16 1018.22 1018.27 1018.29 1018.27 1018.21 1018.12 1018.01 1017.89 1017.77 1017.63 1017.47 1017.28 1017.04 1016.75 1016.40 1016.01 1015.57 1015.10 1014.60 1014.07 1013.52
1019.23 1019.61 1020.00 1020.43 1020.91 1021.40 1021.87 1022.28 1022.56 1022.68 1022.60 1022.33 1021.88 1021.30 1020.64 1019.98 1019.36 1018.84 1018.44 1018.16 1018.00 1017.94 1017.93 1017.95 1017.97 1017.99 1018.00 1018.00 1017.99 1017.97 1017.95 1017.90 1017.83 1017.71 1017.54 1017.31 1017.02 1016.67 1016.28 1015.86 1015.43 1014.98 1014.51 1014.03
1019.43 1019.84 1020.22 1020.59 1020.93 1021.24 1021.49 1021.65 1021.71 1021.63 1021.43 1021.10 1020.67 1020.19 1019.68 1019.19 1018.75 1018.39 1018.11 1017.91 1017.78 1017.70 1017.66 1017.65 1017.65 1017.67 1017.70 1017.75 1017.82 1017.89 1017.95 1017.99 1017.98 1017.90 1017.75 1017.53 1017.24 1016.89 1016.51 1016.12 1015.72 1015.33 1014.94 1014.53
1019.84 1020.23 1020.57 1020.83 1021.01 1021.11 1021.12 1021.04 1020.86 1020.59 1020.25 1019.87 1019.46 1019.06 1018.69 1018.37 1018.10 1017.89 1017.73 1017.61 1017.52 1017.44 1017.38 1017.34 1017.32 1017.34 1017.40 1017.49 1017.62 1017.77 1017.91 1018.01 1018.06 1018.02 1017.89 1017.68 1017.39 1017.06 1016.70 1016.34 1015.99 1015.66 1015.34 1015.02
1020.41 1020.75 1020.97 1021.09 1021.09 1020.97 1020.74 1020.41 1020.02 1019.57 1019.12 1018.68 1018.29 1017.96 1017.71 1017.53 1017.42 1017.35 1017.30 1017.26 1017.22 1017.16 1017.10 1017.05 1017.03 1017.05 1017.12 1017.26 1017.43 1017.64 1017.83 1017.98 1018.07 1018.06 1017.95 1017.76 1017.49 1017.17 1016.84 1016.53 1016.24 1015.98 1015.75 1015.51
1021.01 1021.24 1021.33 1021.27 1021.07 1020.74 1020.29 1019.75 1019.16 1018.57 1018.02 1017.54 1017.16 1016.90 1016.75 1016.70 1016.71 1016.77 1016.83 1016.87 1016.88 1016.87 1016.82 1016.79 1016.77 1016.81 1016.90 1017.06 1017.27 1017.50 1017.73 1017.91 1018.02 1018.03 1017.95 1017.77 1017.53 1017.25 1016.96 1016.70 1016.48 1016.30 1016.15 1016.00
1021.47 1021.56 1021.49 1021.26 1020.88 1020.35 1019.72 1019.01 1018.28 1017.59 1016.97 1016.47 1016.11 1015.90 1015.83 1015.88 1016.00 1016.16 1016.31 1016.44 1016.51 1016.55 1016.54 1016.54 1016.55 1016.60 1016.72 1016.90 1017.12 1017.37 1017.61 1017.80 1017.91 1017.94 1017.87 1017.72 1017.51 1017.28 1017.05 1016.86 1016.71 1016.60 1016.53 1016.45
1021.63 1021.57 1021.35 1020.97 1020.43 1019.77 1019.00 1018.19 1017.38 1016.63 1015.98 1015.48 1015.15 1014.99 1014.98 1015.10 1015.30 1015.54 1015.77 1015.96 1016.10 1016.19 1016.24 1016.27 1016.32 1016.41 1016.55 1016.74 1016.97 1017.22 1017.45 1017.64 1017.76 1017.79 1017.74 1017.62 1017.46 1017.28 1017.11 1016.99 1016.91 1016.87 1016.85 1016.83
1021.39 1021.21 1020.87 1020.37 1019.74 1018.99 1018.17 1017.32 1016.49 1015.74 1015.10 1014.63 1014.33 1014.21 1014.24 1014.40 1014.65 1014.92 1015.20 1015.44 1015.63 1015.78 1015.88 1015.97 1016.06 1016.18 1016.35 1016.55 1016.78 1017.02 1017.24 1017.42 1017.53 1017.57 1017.55 1017.46 1017.35 1017.22 1017.12 1017.06 1017.03 1017.05 1017.08 1017.10
1020.78 1020.50 1020.08 1019.53 1018.87 1018.11 1017.30 1016.47 1015.69 1014.98 1014.40 1013.96 1013.70 1013.60 1013.64 1013.81 1014.06 1014.34 1014.63 1014.89 1015.11 1015.30 1015.44 1015.57 1015.71 1015.87 1016.05 1016.27 1016.50 1016.74 1016.95 1017.12 1017.23 1017.28 1017.28 1017.23 1017.16 1017.10 1017.05 1017.04 1017.06 1017.11 1017.16 1017.20
1019.88 1019.56 1019.13 1018.58 1017.94 1017.24 1016.50 1015.76 1015.07 1014.44 1013.93 1013.54 1013.30 1013.20 1013.23 1013.37 1013.57 1013.82 1014.08 1014.32 1014.54 1014.73 1014.91 1015.07 1015.24 1015.43 1015.63 1015.86 1016.10 1016.33 1016.53 1016.70 1016.83 1016.90 1016.92 1016.92 1016.90 1016.88 1016.89 1016.91 1016.97 1017.03 1017.09 1017.11
1018.88 1018.57 1018.16 1017.67 1017.12 1016.52 1015.90 1015.28 1014.70 1014.18 1013.74 1013.39 1013.16 1013.04 1013.02 1013.09 1013.21 1013.38 1013.57 1013.76 1013.94 1014.11 1014.28 1014.46 1014.64 1014.84 1015.06 1015.30 1015.54 1015.77 1015.99 1016.16 1016.30 1016.40 1016.47 1016.51 1016.54 1016.57 1016.61 1016.67 1016.73 1016.79 1016.84 1016.85
1017.96 1017.70 1017.36 1016.96 1016.52 1016.06 1015.58 1015.10 1014.64 1014.21 1013.84 1013.52 1013.28 1013.12 1013.02 1012.99 1013.00 1013.05 1013.13 1013.23 1013.34 1013.47 1013.60 1013.75 1013.93 1014.13 1014.35 1014.59 1014.83 1015.07 1015.29 1015.49 1015.65 1015.79 1015.90 1015.99 1016.08 1016.15 1016.23 1016.30 1016.37 1016.43 1016.45 1016.44
Thickness
5766 5751 5739 5743 5746 5744 5735 5722 5715 5715 5720 5710 5700 5695 5695 5695 5690 5685 5681 5678 5676 5674 5675 5674 5672 5670 5668 5666 5664 5663 5662 5662 5663 5663 5664 5665 5667 5670 5673 5676 5680 5683 5687 5691
5747 5741 5752 5753 5748 5740 5729 5716 5710 5711 5714 5705 5694 5691 5694 5693 5689 5685 5681 5677 5674 5671 5670 5669 5668 5666 5663 5661 5659 5658 5656 5657 5657 5656 5657 5658 5660 5662 5665 5668 5671 5675 5678 5682
5740 5745 5754 5747 5738 5730 5723 5714 5709 5704 5702 5698 5691 5684 5687 5690 5690 5686 5682 5678 5674 5671 5667 5666 5664 5662 5660 5657 5656 5654 5652 5652 5652 5652 5652 5654 5655 5656 5658 5660 5663 5667 5670 5674
5739 5747 5745 5737 5732 5728 5716 5723 5715 5705 5690 5680 5684 5664 5680 5683 5682 5682 5679 5676 5672 5670 5667 5663 5661 5659 5657 5655 5654 5651 5650 5649 5648 5648 5647 5647 5646 5647 5650 5652 5656 5659 5663 5667
5732 5739 5737 5730 5730 5729 5719 5719 5711 5701 5688 5675 5675 5665 5671 5680 5676 5678 5678 5676 5673 5670 5666 5663 5660 5658 5656 5654 5652 5649 5647 5646 5645 5645 5644 5643 5643 5643 5646 5648 5650 5653 5657 5660
5733 5741 5739 5733 5732 5729 5720 5707 5695 5682 5674 5664 5673 5662 5667 5671 5678 5681 5681 5678 5675 5671 5667 5663 5661 5658 5655 5653 5650 5648 5645 5644 5643 5642 5641 5640 5640 5640 5642 5643 5645 5648 5651 5654
5722 5728 5735 5737 5724 5719 5710 5689 5668 5666 5654 5659 5673 5666 5670 5686 5686 5685 5682 5679 5676 5672 5667 5663 5660 5657 5655 5652 5650 5647 5644 5642 5641 5640 5639 5638 5638 5638 5638 5639 5640 5643 5645 5648
5708 5706 5724 5729 5722 5711 5703 5691 5667 5659 5652 5657 5670 5666 5680 5694 5694 5691 5687 5682 5678 5673 5669 5665 5662 5659 5655 5653 5650 5647 5644 5641 5640 5638 5637 5636 5636 5636 5636 5637 5637 5639 5641 5643
5707 5705 5724 5728 5727 5716 5699 5687 5684 5665 5663 5656 5662 5674 5687 5694 5692 5690 5686 5682 5678 5675 5672 5668 5665 5661 5658 5654 5651 5648 5644 5642 5640 5638 5636 5635 5634 5634 5634 5635 5635 5636 5638 5641
5718 5706 5715 5723 5723 5716 5708 5688 5673 5665 5658 5652 5659 5667 5674 5688 5687 5688 5685 5682 5680 5678 5674 5671 5667 5664 5660 5656 5653 5650 5646 5643 5640 5638 5636 5635 5633 5633 5633 5633 5633 5634 5635 5637
5722 5704 5704 5711 5708 5704 5699 5689 5673 5661 5660 5651 5650 5665 5692 5695 5695 5691 5688 5686 5683 5680 5677 5673 5669 5666 5663 5659 5655 5651 5648 5644 5641 5638 5636 5634 5633 5632 5632 5631 5631 5632 5633 5635
5713 5697 5690 5702 5712 5715 5709 5698 5680 5671 5666 5655 5649 5666 5704 5702 5700 5696 5693 5690 5688 5685 5681 5677 5672 5668 5664 5661 5657 5653 5649 5646 5643 5640 5637 5635 5633 5632 5631 5630 5630 5631 5632 5633
5713 5697 5684 5688 5695 5707 5707 5699 5689 5675 5663 5652 5653 5674 5705 5703 5702 5699 5696 5693 5690 5687 5684 5679 5675 5670 5666 5663 5659 5655 5652 5648 5645 5641 5638 5636 5634 5632 5631 5630 5630 5630 5631 5631
5718 5699 5691 5688 5693 5700 5703 5700 5690 5682 5668 5662 5667 5682 5700 5704 5702 5702 5699 5697 5693 5689 5686 5682 5677 5673 5670 5666 5662 5658 5655 5651 5648 5644 5640 5637 5635 5633 5631 5630 5629 5629 5629 5629
5717 5703 5706 5706 5711 5709 5708 5706 5696 5691 5686 5679 5688 5690 5704 5709 5708 5707 5705 5701 5697 5693 5690 5686 5681 5677 5674 5670 5666 5662 5658 5654 5650 5646 5642 5639 5636 5635 5633 5631 5630 5629 5628 5628
5712 5707 5709 5709 5711 5712 5709 5711 5704 5700 5699 5695 5695 5699 5717 5718 5715 5711 5708 5704 5700 5697 5694 5691 5687 5683 5679 5674 5670 5665 5661 5657 5653 5648 5645 5641 5639 5637 5634 5632 5630 5629 5627 5627
5705 5705 5699 5695 5703 5709 5703 5715 5710 5710 5710 5707 5702 5712 5722 5720 5717 5715 5713 5709 5705 5703 5699 5695 5691 5687 5683 5679 5674 5669 5665 5660 5656 5651 5648 5644 5641 5638 5636 5634 5631 5628 5626 5625
5706 5697 5686 5688 5701 5696 5712 5731 5726 5719 5721 5718 5720 5723 5724 5724 5725 5724 5720 5715 5711 5708 5704 5700 5696 5692 5688 5684 5679 5674 5668 5663 5659 5654 5650 5647 5643 5640 5638 5635 5632 5629 5627 5625
5710 5701 5686 5681 5688 5694 5718 5732 5727 5723 5725 5732 5726 5729 5729 5728 5725 5724 5727 5723 5719 5715 5711 5706 5702 5697 5693 5688 5683 5677 5671 5666 5662 5658 5654 5650 5646 5643 5640 5637 5634 5631 5628 5626
5704 5700 5687 5681 5691 5692 5716 5737 5738 5731 5722 5739 5735 5732 5728 5723 5711 5718 5733 5729 5724 5720 5715 5710 5706 5700 5695 5691 5685 5679 5674 5669 5665 5662 5658 5654 5650 5646 5642 5639 5636 5633 5630 5627
5699 5690 5685 5681 5686 5694 5723 5735 5736 5714 5718 5743 5740 5736 5728 5723 5726 5731 5734 5731 5728 5723 5719 5714 5708 5702 5699 5694 5687 5681 5677 5673 5670 5666 5662 5658 5654 5650 5646 5642 5638 5635 5632 5629
5694 5686 5682 5678 5683 5698 5734 5731 5724 5727 5741 5744 5742 5739 5733 5732 5734 5734 5733 5730 5727 5723 5719 5715 5709 5705 5701 5696 5689 5684 5680 5679 5674 5669 5665 5661 5657 5653 5650 5645 5641 5638 5634 5631
5698 5701 5696 5697 5706 5724 5729 5731 5735 5737 5737 5741 5740 5741 5737 5734 5732 5732 5731 5728 5726 5723 5719 5715 5710 5706 5702 5697 5693 5687 5686 5682 5676 5671 5667 5663 5660 5656 5652 5648 5644 5640 5637 5633
5702 5703 5702 5702 5716 5723 5727 5728 5731 5734 5736 5739 5740 5740 5737 5733 5733 5731 5729 5726 5724 5722 5719 5715 5710 5706 5703 5700 5696 5693 5690 5684 5679 5674 5670 5665 5662 5658 5654 5650 5647 5643 5640 5636
5704 5699 5702 5705 5713 5719 5727 5724 5726 5731 5734 5735 5737 5736 5735 5732 5730 5729 5726 5725 5724 5722 5719 5715 5711 5708 5706 5703 5699 5696 5691 5686 5680 5676 5672 5668 5664 5660 5656 5653 5649 5647 5644 5640
5695 5696 5698 5702 5707 5705 5711 5716 5719 5723 5726 5729 5730 5730 5730 5728 5727 5726 5724 5724 5722 5720 5717 5713 5711 5708 5707 5704 5701 5698 5694 5688 5683 5678 5674 5670 5666 5662 5658 5655 5652 5651 5648 5646